Content
SEND FEEDBACK

Daily
Averages
Monthly
Summary
United States of America

ST. LOUIS, MISSOURI


Home > North America > United States > Missouri
Elevation: 163 meters     Latitude: 38 45N     Longitude: 090 22W

WEATHER
 
SELECT A DAY
Number of Records: 196,500;   Date Range: 1/1/95 - 8/30/14
 
SHARE

PRINT THIS DATA

[ ← Previous Day ]
WEATHER ALMANAC - 15 JANUARY, 2013
[ Next Day → ]
[ °F ]   °C
Weather ElementAverageHighLow
Temperature-5.1 °C-1.1 °C (2:54 pm)-11.1 °C (6:54 am)
Dewpoint-9.6 °C-7.2 °C (5:54 pm)-13.3 °C (6:54 am)
Humidity71.6 %85 % (11:54 pm)56 % (1:54 pm)
Barometer1027.4 hPa1031.2 hPa (1:54 am)1022.7 hPa (10:54 pm)
Wind Speed5.1 km/h14.8 km/h (9:54 am)
Weather ElementAverage
Visibility16.1 km
Wind DirectionENE (70.4 °)

Weather ElementTotal
Precipitation---
Heating Degree Days24.4 (Base 18.3)
Averaged from 23 records on 15 January, 2013
WEATHER CONDITIONS BREAKOUT
WIND DIRECTION BREAKOUT
WEATHER BY HOUR - 15 JANUARY, 2013
[ °F ]   °C
Local TimeTemperatureDewpointHumidityBarometerVisibilityWind DirectionWind SpeedGust SpeedPrecipitationEventsConditions
1:54 AM-9.4 °C-11.7 °C84 %1031.2 hPa16.1 kmCalmClear
2:54 AM-10 °C-12.8 °C80 %1030.8 hPa16.1 kmCalmClear
3:54 AM-10 °C-12.2 °C84 %1030.5 hPa16.1 kmCalmClear
4:54 AM-10.6 °C-12.8 °C84 %1029.5 hPa16.1 kmCalmClear
5:54 AM-10.6 °C-12.8 °C84 %1029.8 hPa16.1 kmCalmClear
6:54 AM-11.1 °C-13.3 °C84 %1030.8 hPa16.1 kmCalmPartly Cloudy
7:54 AM-9.4 °C-12.8 °C77 %1031.2 hPa16.1 kmCalmMostly Cloudy
8:54 AM-6.1 °C-8.9 °C81 %1030.5 hPa16.1 kmNE (40°)9.3 km/hMostly Cloudy
9:54 AM-5 °C-8.9 °C74 %1029.1 hPa16.1 kmENE (60°)14.8 km/hMostly Cloudy
10:54 AM-3.9 °C-9.4 °C66 %1029.5 hPa16.1 kmNNE (20°)7.4 km/hOvercast
11:54 AM-3.3 °C-10 °C60 %1028.8 hPa16.1 kmCalmPartly Cloudy
12:54 PM-2.8 °C-9.4 °C61 %1027.1 hPa16.1 kmNE (40°)7.4 km/hOvercast
1:54 PM-1.7 °C-9.4 °C56 %1026.8 hPa16.1 kmNE (50°)7.4 km/hOvercast
2:54 PM-1.1 °C-8.9 °C56 %1026.1 hPa16.1 kmNorth (360°)9.3 km/hOvercast
3:54 PM-1.7 °C-8.3 °C61 %1025.7 hPa16.1 kmNorth (360°)9.3 km/hOvercast
4:54 PM-1.7 °C-8.3 °C61 %1025.1 hPa16.1 kmNorth (10°)13 km/hOvercast
5:54 PM-1.7 °C-7.2 °C67 %1024.7 hPa16.1 kmNNE (30°)13 km/hOvercast
6:54 PM-2.2 °C-7.2 °C69 %1024.7 hPa16.1 kmNNE (30°)7.4 km/hMostly Cloudy
7:54 PM-2.2 °C-7.8 °C66 %1024.4 hPa16.1 kmNNE (20°)5.6 km/hOvercast
8:54 PM-2.2 °C-7.2 °C69 %1024.4 hPa16.1 kmCalmOvercast
9:54 PM-2.2 °C-7.2 °C69 %1023.4 hPa16.1 kmNorth (350°)5.6 km/hOvercast
10:54 PM-2.2 °C-7.2 °C69 %1022.7 hPa16.1 kmCalmOvercast
11:54 PM-5 °C-7.2 °C85 %1022.7 hPa16.1 kmWSW (250°)7.4 km/hPartly Cloudy
Hourly data recorded from KSUS, located 0 kilometers away from St. Louis, Missouri







STORIES FROM OUR PARTNERS